Wind_Speed
8 5 13 14 9 5 1 4 7 3 5 1 6 14 7 15 24 22 30 32 36 41 41 39 40 40 39 38 39 40 41 37 38 39 45 45 44 42 42 41 40 39 36 35
4 16 7 5 6 7 7 10 15 3 4 2 5 18 15 13 22 31 30 33 38 42 44 45 44 43 41 40 38 41 46 44 42 45 40 45 43 42 41 42 44 43 41 40
12 4 15 8 5 11 8 15 9 8 2 4 3 15 17 11 19 28 29 32 35 37 40 41 39 38 37 43 48 47 46 51 48 45 45 44 47 45 45 46 47 47 46 44
9 8 9 6 10 8 10 7 8 6 4 5 5 7 11 10 15 18 29 29 35 38 31 32 36 39 37 39 46 47 48 45 51 50 49 46 52 51 49 45 47 48 48 48
9 11 10 9 9 9 10 7 7 6 6 3 10 5 6 2 14 16 22 30 35 35 37 39 37 37 37 43 42 46 46 45 45 53 52 51 50 54 51 48 48 47 49 49
10 5 8 11 7 9 3 3 0 0 3 9 19 8 12 10 13 7 10 23 30 34 40 41 32 27 35 34 36 38 45 47 44 50 53 53 52 52 54 51 52 52 50 50
7 7 2 5 5 4 5 4 4 3 6 8 2 7 14 11 13 14 17 30 38 35 39 35 36 37 31 27 29 33 38 43 43 46 50 54 55 54 56 55 52 53 54 54
12 7 14 6 8 6 9 12 8 6 5 6 2 6 6 13 27 20 29 29 26 28 34 35 26 23 19 19 19 24 33 39 40 43 47 47 50 54 57 58 55 54 55 56
8 7 4 5 5 10 6 8 13 4 2 2 4 7 10 17 19 24 16 15 25 25 27 35 25 18 16 15 14 13 16 20 25 33 40 46 49 51 55 59 58 57 55 56
5 1 6 9 7 12 11 7 2 2 4 6 5 5 8 8 3 6 10 17 24 24 28 30 31 29 24 20 13 12 13 15 15 19 26 33 42 48 49 54 59 59 56 54
4 4 1 7 11 15 4 8 5 5 5 4 3 6 10 17 5 4 6 17 26 31 30 30 34 33 32 27 21 19 20 22 24 22 22 24 30 41 47 51 54 56 55 55
8 4 4 8 1 7 16 17 14 9 7 4 5 13 8 3 3 6 16 22 27 28 33 37 33 28 24 21 20 19 21 21 24 27 27 28 24 28 36 45 52 53 54 55
13 5 2 7 4 1 6 10 10 12 3 16 7 13 6 5 8 20 20 24 29 28 26 25 23 23 24 24 25 24 25 24 22 22 21 24 28 29 32 37 42 48 53 55
24 5 10 12 7 4 6 7 13 13 6 13 14 22 26 10 8 11 19 30 16 16 19 21 25 30 29 31 31 31 29 29 29 29 28 28 27 27 33 33 34 40 47 52
10 7 5 3 4 3 4 6 10 14 19 8 6 15 20 2 4 12 10 13 17 22 25 28 32 35 36 36 37 35 34 35 37 35 35 34 32 30 30 31 35 35 38 45
5 3 4 3 4 4 6 7 7 5 4 7 7 25 6 11 10 14 15 18 21 25 28 33 36 38 41 42 42 42 43 41 41 40 38 35 33 33 32 33 33 36 34 37
11 6 3 4 1 3 9 8 10 6 7 8 13 17 4 5 9 6 11 17 19 23 31 36 39 40 42 45 45 46 47 46 43 42 41 38 36 36 35 34 33 34 35 36
7 8 2 3 3 6 4 2 5 13 12 6 4 7 7 4 9 11 6 20 26 26 33 37 40 42 44 46 46 47 47 48 47 45 43 42 38 38 38 38 37 36 36 37
6 6 3 5 4 4 5 5 6 7 7 2 2 6 6 13 6 9 7 25 29 31 35 37 37 42 44 45 48 50 50 49 48 48 46 44 42 40 39 39 41 39 37 38
5 8 6 3 5 9 6 6 4 3 5 4 6 5 5 8 1 1 15 30 32 34 35 38 42 43 44 46 45 48 50 49 50 49 50 48 44 43 41 38 39 42 42 43
7 3 14 3 4 7 6 1 4 5 2 8 5 3 2 0 5 20 27 30 31 32 32 38 42 43 44 46 48 48 49 48 48 50 50 49 46 45 44 42 39 38 43 45
8 8 4 3 2 12 4 1 7 5 7 7 2 3 5 8 14 17 23 26 29 36 39 39 41 42 42 43 44 47 47 47 47 48 49 49 47 44 44 43 41 39 38 41
4 6 6 8 4 4 6 10 12 8 8 2 3 7 11 13 14 17 21 25 29 32 35 36 38 40 40 40 40 44 45 45 46 46 48 47 46 44 42 42 43 40 37 37
2 3 4 5 4 8 12 12 9 6 3 2 6 9 10 13 15 16 19 22 24 29 32 33 34 37 39 38 37 38 40 42 43 44 44 43 42 43 41 40 39 41 39 37
2 5 6 4 6 9 4 7 7 2 1 4 6 8 10 12 14 17 21 22 24 27 29 30 30 33 35 37 35 35 37 39 41 41 40 40 39 37 39 39 39 39 38 33
1 4 4 3 15 6 7 14 6 3 2 4 6 8 9 12 14 17 18 20 22 25 27 28 27 30 33 35 35 34 34 36 38 39 38 36 37 37 36 38 43 38 36 33
Wind_Direction
198 202 214 212 224 223 206 214 240 174 209 204 260 285 284 301 298 288 284 286 286 283 281 276 274 275 267 261 259 254 250 250 242 235 238 240 241 242 242 243 245 244 243 243
174 228 194 182 222 218 236 254 257 250 243 239 286 282 285 279 282 277 277 278 282 283 286 286 280 273 266 264 261 257 253 250 247 241 247 243 247 246 247 247 245 245 244 245
212 224 178 181 189 216 227 231 250 252 241 254 252 277 279 276 252 272 278 280 280 280 284 289 286 280 268 264 261 261 258 253 250 246 242 243 242 245 246 246 246 245 244 245
227 209 173 187 228 185 232 193 229 230 226 252 153 284 280 282 270 263 272 271 275 278 279 288 289 285 280 271 262 263 262 257 254 248 243 244 245 245 249 250 250 248 246 245
213 172 182 192 219 173 242 162 204 202 217 262 234 243 284 289 284 270 269 273 276 276 282 291 282 286 290 285 272 260 260 257 254 250 246 245 247 251 254 253 254 253 251 248
233 196 180 213 198 183 128 135 69 223 203 244 248 214 265 258 253 285 282 281 283 283 294 294 291 285 300 288 274 265 260 260 256 250 248 245 248 253 252 254 254 255 255 254
191 218 247 185 156 160 175 141 264 267 229 247 166 182 236 268 268 259 281 288 295 302 303 301 284 288 299 293 277 271 265 262 259 254 252 250 250 254 255 257 258 258 258 257
205 217 198 192 192 178 198 194 212 208 231 252 127 217 251 239 261 272 276 299 315 331 340 334 318 303 308 291 293 276 270 267 263 260 257 260 257 255 259 259 259 261 263 263
180 239 196 199 157 155 193 199 221 290 167 266 227 284 291 279 278 283 309 7 6 8 13 10 2 3 350 330 302 291 290 280 273 269 264 260 260 257 259 261 261 263 264 263
201 226 204 195 169 223 195 149 163 253 205 240 232 256 245 277 259 354 13 5 351 345 357 360 12 13 19 16 19 9 357 324 316 294 273 268 266 265 266 265 263 262 264 260
197 158 197 119 208 193 177 212 204 158 156 197 247 247 222 260 208 334 332 347 337 336 343 347 343 339 342 340 342 337 333 327 325 327 316 289 279 272 265 264 264 264 265 264
185 151 196 206 270 199 212 221 212 219 223 237 257 263 236 195 326 10 335 334 330 331 349 341 342 338 345 341 339 337 329 326 323 324 320 321 304 287 276 272 268 267 266 264
177 199 66 333 332 206 200 215 201 215 85 238 231 260 105 291 332 320 321 327 332 344 341 343 354 359 355 349 345 337 335 328 320 312 309 310 313 306 300 285 274 270 266 263
167 160 199 218 212 162 200 187 203 198 206 245 230 268 267 287 299 311 317 322 10 15 8 0 355 354 354 352 349 345 341 338 333 325 317 313 310 300 297 298 290 276 269 266
164 201 178 184 170 186 201 187 187 204 224 204 232 245 268 22 321 323 15 13 7 6 2 1 355 352 348 347 346 343 340 339 337 333 328 319 309 304 300 294 298 291 275 267
176 180 120 243 253 206 243 218 212 208 224 252 255 259 21 78 52 53 48 29 15 2 355 351 349 347 345 345 342 338 336 337 335 334 332 328 311 301 295 294 294 295 288 275
166 125 110 236 171 76 281 217 199 199 197 202 233 265 49 45 60 71 54 28 8 353 347 344 344 341 339 338 337 335 332 329 327 327 328 326 324 306 296 291 286 285 287 287
143 143 138 154 74 221 242 258 214 212 231 222 352 55 55 344 320 176 60 12 355 346 340 338 337 335 334 333 332 329 327 326 323 321 320 321 319 316 303 292 288 286 286 283
136 143 148 169 201 312 282 235 170 172 224 67 120 66 28 340 350 189 231 338 339 333 331 330 331 329 328 329 327 324 324 322 321 320 317 316 317 315 314 300 290 287 284 280
123 177 180 141 200 213 225 171 38 99 249 102 88 77 33 347 161 203 305 320 326 326 328 328 327 326 327 326 325 321 320 320 319 317 316 314 313 311 310 312 302 289 283 280
165 128 209 170 209 284 262 327 320 128 230 129 107 87 48 310 256 292 311 318 323 328 326 329 328 329 326 323 322 321 319 320 316 314 313 312 313 309 307 306 308 301 287 281
162 162 184 116 174 251 2 152 192 121 115 132 91 341 315 301 305 311 316 323 329 327 331 331 328 326 325 325 323 320 321 319 316 313 311 312 312 309 307 306 305 305 299 287
187 180 176 184 202 59 48 106 117 126 130 134 324 319 321 319 320 326 328 331 331 332 334 334 332 329 330 330 329 324 322 321 318 315 314 315 314 312 309 308 306 306 304 297
216 171 143 138 145 130 116 113 118 119 119 294 309 320 328 325 332 332 332 333 335 340 340 337 336 335 336 336 335 331 328 324 323 321 320 320 319 316 314 310 309 309 306 300
210 126 131 83 100 110 139 156 153 153 296 308 326 333 332 336 339 337 337 339 341 344 344 342 342 340 341 342 342 338 334 332 329 326 326 324 323 319 315 313 313 310 307 302
235 167 168 197 162 128 143 180 180 197 276 332 342 346 347 344 347 342 339 341 344 346 348 346 345 343 344 345 346 344 341 340 338 335 333 331 328 326 321 318 314 312 311 311
Height
1538 1539 1535 1537 1541 1542 1544 1546 1548 1545 1545 1544 1544 1535 1535 1534 1530 1527 1523 1522 1519 1517 1518 1519 1519 1519 1517 1518 1518 1517 1517 1517 1518 1515 1522 1523 1522 1525 1526 1527 1529 1531 1534 1535
1538 1530 1535 1536 1539 1541 1541 1543 1542 1545 1543 1544 1543 1533 1527 1529 1524 1521 1519 1516 1513 1510 1509 1509 1509 1510 1509 1508 1509 1510 1509 1509 1509 1510 1508 1515 1516 1517 1519 1521 1522 1523 1526 1528
1529 1526 1530 1534 1538 1541 1541 1540 1540 1544 1542 1541 1543 1533 1522 1516 1515 1513 1510 1509 1507 1505 1501 1497 1495 1496 1499 1499 1500 1501 1502 1503 1503 1503 1505 1508 1510 1511 1510 1510 1512 1513 1517 1519
1529 1525 1526 1531 1534 1536 1540 1536 1539 1543 1545 1545 1539 1536 1520 1515 1512 1507 1502 1501 1498 1496 1493 1490 1488 1488 1488 1488 1490 1490 1492 1494 1496 1497 1497 1495 1499 1497 1497 1500 1503 1506 1508 1510
1517 1521 1525 1528 1525 1531 1530 1533 1536 1538 1543 1544 1538 1540 1517 1513 1509 1503 1495 1493 1490 1489 1488 1484 1483 1481 1480 1479 1479 1480 1482 1484 1486 1487 1487 1488 1488 1491 1492 1494 1494 1496 1498 1501
1515 1517 1519 1518 1523 1526 1528 1533 1535 1538 1543 1537 1520 1535 1519 1510 1500 1492 1490 1488 1486 1484 1482 1478 1476 1475 1473 1471 1470 1471 1473 1474 1477 1478 1479 1478 1479 1482 1483 1484 1485 1486 1488 1490
1516 1516 1515 1515 1523 1526 1528 1535 1544 1551 1537 1528 1520 1530 1510 1494 1493 1492 1487 1485 1483 1483 1477 1470 1466 1468 1466 1464 1464 1465 1466 1465 1467 1468 1470 1471 1472 1473 1473 1474 1475 1477 1478 1479
1507 1513 1511 1510 1511 1519 1524 1527 1530 1539 1534 1525 1523 1521 1505 1491 1485 1486 1484 1487 1485 1479 1473 1467 1463 1464 1462 1461 1460 1460 1461 1461 1461 1461 1461 1462 1464 1464 1464 1465 1467 1467 1467 1468
1509 1509 1499 1501 1506 1509 1520 1522 1513 1530 1536 1536 1520 1509 1495 1487 1483 1482 1487 1485 1481 1477 1474 1470 1465 1463 1460 1459 1458 1456 1457 1458 1458 1457 1456 1455 1454 1455 1455 1456 1457 1456 1457 1458
1496 1504 1495 1497 1502 1501 1503 1509 1524 1535 1533 1529 1515 1516 1503 1487 1485 1486 1487 1483 1480 1476 1474 1473 1468 1465 1463 1461 1460 1459 1459 1458 1454 1452 1450 1448 1448 1447 1447 1449 1448 1448 1449 1450
1491 1494 1497 1498 1496 1494 1504 1506 1506 1512 1523 1532 1524 1505 1482 1476 1482 1485 1484 1482 1480 1477 1474 1472 1468 1465 1464 1463 1462 1462 1458 1458 1454 1449 1447 1443 1441 1442 1440 1439 1439 1439 1440 1440
1486 1492 1500 1496 1488 1488 1490 1491 1497 1504 1517 1516 1507 1491 1473 1477 1481 1481 1480 1478 1478 1477 1475 1470 1466 1462 1460 1458 1457 1456 1454 1450 1446 1444 1442 1440 1436 1436 1435 1432 1431 1431 1430 1431
1474 1487 1519 1503 1494 1489 1490 1488 1489 1493 1504 1498 1505 1483 1476 1478 1480 1479 1476 1474 1474 1475 1471 1469 1466 1461 1458 1455 1454 1451 1450 1445 1440 1437 1432 1431 1429 1428 1426 1423 1421 1420 1419 1420
1467 1477 1475 1478 1476 1480 1486 1485 1484 1488 1501 1486 1492 1481 1459 1477 1478 1477 1475 1474 1476 1475 1474 1472 1465 1463 1458 1455 1452 1448 1444 1441 1436 1432 1429 1425 1422 1420 1419 1417 1413 1411 1411 1410
1464 1476 1475 1474 1476 1477 1476 1479 1483 1483 1478 1489 1480 1482 1455 1476 1478 1476 1476 1475 1473 1472 1471 1469 1465 1459 1455 1451 1447 1443 1440 1436 1430 1425 1422 1419 1415 1412 1410 1408 1406 1403 1401 1400
1460 1478 1474 1484 1477 1479 1479 1478 1479 1481 1482 1485 1485 1469 1472 1476 1476 1475 1476 1475 1474 1471 1469 1466 1462 1457 1453 1447 1442 1437 1433 1428 1426 1420 1417 1413 1409 1405 1402 1400 1397 1396 1392 1390
1457 1470 1485 1490 1481 1481 1483 1470 1474 1475 1473 1473 1475 1459 1472 1476 1476 1478 1477 1476 1475 1472 1469 1464 1460 1456 1451 1446 1441 1434 1429 1426 1421 1416 1412 1408 1402 1397 1394 1391 1387 1383 1382 1382
1457 1463 1475 1487 1490 1483 1459 1458 1458 1460 1459 1464 1465 1472 1476 1477 1476 1477 1476 1475 1473 1471 1468 1463 1457 1451 1447 1442 1436 1431 1426 1420 1415 1412 1406 1401 1396 1389 1386 1383 1378 1375 1373 1370
1442 1458 1471 1478 1498 1476 1460 1455 1458 1459 1460 1470 1470 1474 1476 1473 1472 1475 1473 1472 1471 1469 1465 1460 1455 1450 1443 1437 1431 1424 1419 1414 1409 1403 1397 1393 1387 1382 1377 1372 1368 1365 1362 1359
1445 1447 1459 1487 1469 1476 1454 1446 1449 1451 1461 1469 1471 1475 1477 1475 1473 1471 1470 1469 1467 1464 1460 1453 1448 1444 1437 1431 1426 1419 1412 1406 1400 1394 1388 1384 1380 1374 1368 1363 1357 1353 1352 1348
1445 1455 1450 1482 1490 1474 1448 1447 1451 1469 1459 1468 1470 1473 1474 1475 1476 1471 1467 1464 1462 1457 1452 1447 1441 1435 1430 1424 1418 1411 1405 1400 1392 1385 1378 1373 1370 1365 1359 1353 1348 1343 1340 1335
1434 1447 1453 1475 1468 1453 1448 1447 1449 1457 1462 1464 1467 1470 1471 1470 1468 1466 1462 1458 1453 1448 1444 1440 1434 1430 1425 1420 1412 1404 1398 1392 1386 1378 1370 1364 1360 1356 1350 1343 1335 1332 1328 1323
1432 1430 1442 1444 1443 1450 1448 1450 1453 1455 1458 1462 1465 1466 1465 1464 1463 1460 1457 1453 1448 1444 1440 1435 1430 1424 1420 1415 1408 1398 1391 1384 1376 1370 1363 1357 1351 1347 1342 1334 1326 1322 1318 1314
1426 1426 1432 1440 1451 1451 1451 1453 1455 1456 1458 1460 1460 1460 1460 1460 1457 1454 1452 1449 1444 1440 1436 1431 1425 1419 1413 1410 1405 1397 1387 1379 1371 1363 1357 1350 1344 1338 1333 1327 1322 1314 1310 1306
1423 1423 1433 1446 1450 1451 1452 1452 1454 1455 1456 1457 1456 1456 1455 1454 1452 1449 1447 1444 1440 1436 1432 1428 1422 1416 1410 1404 1400 1394 1385 1376 1367 1359 1352 1345 1338 1333 1326 1322 1317 1312 1308 1303
1423 1420 1420 1423 1428 1435 1442 1448 1451 1453 1454 1453 1453 1452 1451 1450 1449 1448 1447 1443 1438 1433 1430 1425 1420 1414 1408 1402 1396 1390 1383 1374 1365 1356 1348 1340 1333 1326 1320 1313 1305 1304 1299 1294